When you browse on this site, cookies collect data to enhance your experience and personalize the content and advertising you see.
Visit our Privacy Policy to learn more. By continuing to use the site, you agree to this use of cookies and data.
  • In Romania
  • List of Countries
  • For 7 days
  • Water Temperature
  • Satellite Maps
  • Weather Map
  • Weather Widgets
  • user-avatar
    Login

    Hourly Weather Valencia

    Today, 18 June, Tuesday

    Time Temperature Precipitation Wind Pressure Humidity
    00:00 +24°C° 2.6 mm 1 mps 719 mmHg 98%
    01:00 +24°C° 2.6 mm 1 mps 719 mmHg 98%
    02:00 +24°C° 1.2 mm 1 mps 719 mmHg 98%
    03:00 +24°C° 1.2 mm 1 mps 719 mmHg 98%
    04:00 +24°C° 1.2 mm 1 mps 719 mmHg 97%
    05:00 +24°C° 0.5 mm 1 mps 719 mmHg 97%
    06:00 +24°C° 0.5 mm 1 mps 719 mmHg 97%
    07:00 +24°C° 0.5 mm 1 mps 720 mmHg 97%
    08:00 +25°C° 0.1 mm 1 mps 720 mmHg 93%
    09:00 +26°C° 0.1 mm 1 mps 720 mmHg 89%
    10:00 +27°C° 0.1 mm 2 mps 720 mmHg 85%
    11:00 +28°C° 0.8 mm 2 mps 719 mmHg 84%
    12:00 +28°C° 0.8 mm 2 mps 719 mmHg 82%
    13:00 +29°C° 0.8 mm 2 mps 718 mmHg 80%
    14:00 +28°C° 1 mm 2 mps 718 mmHg 83%
    15:00 +28°C° 1 mm 1 mps 718 mmHg 85%
    16:00 +27°C° 1 mm 1 mps 717 mmHg 88%
    17:00 +26°C° 0.3 mm 1 mps 717 mmHg 91%
    18:00 +25°C° 0.3 mm 1 mps 717 mmHg 93%
    19:00 +25°C° 0.3 mm 1 mps 718 mmHg 96%
    20:00 +24°C° 0.5 mm 1 mps 718 mmHg 96%
    21:00 +22°C° 0.5 mm 0 mps 719 mmHg 96%
    22:00 +22°C° 0.5 mm 0 mps 719 mmHg 96%
    23:00 +22°C° 0.5 mm 0 mps 719 mmHg 96%

    Tomorrow, 19 June, Wednesday

    Time Temperature Precipitation Wind Pressure Humidity
    00:00 +24°C° 0.5 mm 1 mps 718 mmHg 96%
    01:00 +24°C° 0.5 mm 1 mps 718 mmHg 97%
    02:00 +24°C° 0.2 mm 1 mps 718 mmHg 96%
    03:00 +24°C° 0.2 mm 1 mps 718 mmHg 96%
    04:00 +24°C° 0.2 mm 1 mps 718 mmHg 96%
    05:00 +24°C° 0 mm 1 mps 718 mmHg 94%
    06:00 +25°C° 0 mm 1 mps 718 mmHg 93%
    07:00 +25°C° 0 mm 1 mps 719 mmHg 92%
    08:00 +26°C° 0.2 mm 1 mps 719 mmHg 87%
    09:00 +27°C° 0.2 mm 2 mps 719 mmHg 82%
    10:00 +28°C° 0.2 mm 3 mps 719 mmHg 78%
    11:00 +28°C° 1.2 mm 3 mps 719 mmHg 79%
    12:00 +29°C° 1.2 mm 3 mps 718 mmHg 81%
    13:00 +29°C° 1.2 mm 2 mps 718 mmHg 82%
    14:00 +28°C° 2.1 mm 2 mps 717 mmHg 84%
    15:00 +28°C° 2.1 mm 2 mps 717 mmHg 86%
    16:00 +28°C° 2.1 mm 2 mps 717 mmHg 88%
    17:00 +27°C° 1 mm 2 mps 717 mmHg 89%
    18:00 +26°C° 1 mm 1 mps 717 mmHg 91%
    19:00 +25°C° 1 mm 1 mps 718 mmHg 93%
    20:00 +25°C° 0.1 mm 1 mps 718 mmHg 93%
    21:00 +24°C° 0.1 mm 1 mps 718 mmHg 93%
    22:00 +24°C° 0.1 mm 1 mps 719 mmHg 93%
    23:00 +24°C° 0.1 mm 1 mps 718 mmHg 93%

    Day after tomorrow, 20 June, Thursday

    Time Temperature Precipitation Wind Pressure Humidity
    00:00 +24°C° 0.1 mm 1 mps 718 mmHg 94%
    01:00 +24°C° 0.1 mm 1 mps 718 mmHg 95%
    02:00 +24°C° 0.2 mm 1 mps 718 mmHg 95%
    03:00 +23°C° 0.2 mm 1 mps 718 mmHg 95%
    04:00 +23°C° 0.2 mm 2 mps 718 mmHg 96%
    05:00 +24°C° 0.2 mm 2 mps 718 mmHg 94%
    06:00 +25°C° 0.2 mm 2 mps 719 mmHg 93%
    07:00 +25°C° 0.2 mm 2 mps 719 mmHg 91%
    08:00 +26°C° 0.3 mm 2 mps 720 mmHg 85%
    09:00 +27°C° 0.3 mm 3 mps 720 mmHg 80%
    10:00 +29°C° 0.3 mm 3 mps 720 mmHg 74%
    11:00 +29°C° 0.3 mm 3 mps 720 mmHg 70%
    12:00 +30°C° 0.3 mm 4 mps 720 mmHg 67%
    13:00 +30°C° 0.3 mm 4 mps 719 mmHg 63%
    14:00 +30°C° 0.2 mm 3 mps 719 mmHg 67%
    15:00 +29°C° 0.2 mm 3 mps 718 mmHg 70%
    16:00 +29°C° 0.2 mm 2 mps 718 mmHg 73%
    17:00 +27°C° 0.9 mm 2 mps 718 mmHg 79%
    18:00 +26°C° 0.9 mm 1 mps 719 mmHg 86%
    19:00 +24°C° 0.9 mm 1 mps 719 mmHg 92%
    20:00 +24°C° 0.3 mm 1 mps 719 mmHg 91%
    21:00 +24°C° 0.3 mm 1 mps 720 mmHg 91%
    22:00 +24°C° 0.3 mm 1 mps 720 mmHg 90%
    23:00 +24°C° 0 mm 1 mps 720 mmHg 91%

    21 June, Friday

    Time Temperature Precipitation Wind Pressure Humidity
    00:00 +24°C° 0 mm 1 mps 719 mmHg 91%
    01:00 +23°C° 0 mm 1 mps 719 mmHg 92%
    02:00 +23°C° 0 mm 1 mps 719 mmHg 91%
    03:00 +23°C° 0 mm 1 mps 719 mmHg 91%
    04:00 +23°C° 0 mm 1 mps 719 mmHg 91%
    05:00 +24°C° 0 mm 1 mps 720 mmHg 90%
    06:00 +24°C° 0 mm 1 mps 720 mmHg 89%
    07:00 +25°C° 0 mm 1 mps 721 mmHg 88%
    08:00 +26°C° 0 mm 1 mps 721 mmHg 80%
    09:00 +28°C° 0 mm 2 mps 721 mmHg 72%
    10:00 +29°C° 0 mm 3 mps 722 mmHg 64%
    11:00 +30°C° 0 mm 3 mps 721 mmHg 63%
    12:00 +30°C° 0 mm 3 mps 720 mmHg 62%
    13:00 +30°C° 0 mm 4 mps 720 mmHg 61%
    14:00 +30°C° 0 mm 3 mps 719 mmHg 64%
    15:00 +30°C° 0 mm 3 mps 719 mmHg 67%
    16:00 +29°C° 0 mm 2 mps 718 mmHg 69%
    17:00 +28°C° 0.1 mm 2 mps 719 mmHg 78%
    18:00 +26°C° 0.1 mm 1 mps 719 mmHg 86%
    19:00 +24°C° 0.1 mm 1 mps 719 mmHg 94%
    20:00 +24°C° 0 mm 1 mps 720 mmHg 94%
    21:00 +22°C° 0 mm 0 mps 720 mmHg 94%
    22:00 +22°C° 0 mm 0 mps 721 mmHg 93%
    23:00 +22°C° 0 mm 0 mps 720 mmHg 94%

    22 June, Saturday

    Time Temperature Precipitation Wind Pressure Humidity
    00:00 +21°C° 0 mm 0 mps 720 mmHg 94%
    01:00 +23°C° 0 mm 1 mps 719 mmHg 94%
    02:00 +23°C° 0 mm 1 mps 719 mmHg 93%
    03:00 +23°C° 0 mm 1 mps 719 mmHg 92%
    04:00 +23°C° 0 mm 1 mps 719 mmHg 91%
    05:00 +24°C° 0 mm 1 mps 720 mmHg 90%
    06:00 +25°C° 0 mm 1 mps 720 mmHg 88%
    07:00 +26°C° 0 mm 1 mps 720 mmHg 86%
    08:00 +27°C° 0.3 mm 2 mps 721 mmHg 82%
    09:00 +28°C° 0.3 mm 2 mps 721 mmHg 78%
    10:00 +29°C° 0.3 mm 3 mps 721 mmHg 74%
    11:00 +29°C° 1.2 mm 3 mps 720 mmHg 74%
    12:00 +29°C° 1.2 mm 3 mps 720 mmHg 74%
    13:00 +30°C° 1.2 mm 3 mps 719 mmHg 75%
    14:00 +29°C° 1.5 mm 3 mps 718 mmHg 78%
    15:00 +28°C° 1.5 mm 2 mps 718 mmHg 82%
    16:00 +28°C° 1.5 mm 1 mps 718 mmHg 86%
    17:00 +27°C° 1.1 mm 1 mps 718 mmHg 88%
    18:00 +26°C° 1.1 mm 1 mps 718 mmHg 90%
    19:00 +25°C° 1.1 mm 1 mps 719 mmHg 92%
    20:00 +25°C° 0.3 mm 1 mps 719 mmHg 93%
    21:00 +24°C° 0.3 mm 1 mps 719 mmHg 93%
    22:00 +24°C° 0.3 mm 1 mps 720 mmHg 93%
    23:00 +22°C° 0.2 mm 0 mps 719 mmHg 93%

    23 June, Sunday

    Time Temperature Precipitation Wind Pressure Humidity
    00:00 +22°C° 0.2 mm 0 mps 719 mmHg 92%
    01:00 +22°C° 0.2 mm 0 mps 719 mmHg 92%
    02:00 +22°C° 0.3 mm 0 mps 718 mmHg 92%
    03:00 +22°C° 0.3 mm 0 mps 718 mmHg 92%
    04:00 +21°C° 0.3 mm 0 mps 718 mmHg 93%
    05:00 +24°C° 0 mm 1 mps 719 mmHg 93%
    06:00 +24°C° 0 mm 1 mps 719 mmHg 93%
    07:00 +25°C° 0 mm 1 mps 719 mmHg 93%
    08:00 +25°C° 0.5 mm 1 mps 719 mmHg 91%
    09:00 +26°C° 0.5 mm 1 mps 720 mmHg 90%
    10:00 +26°C° 0.5 mm 1 mps 720 mmHg 88%
    11:00 +27°C° 1.6 mm 1 mps 719 mmHg 87%
    12:00 +27°C° 1.6 mm 2 mps 719 mmHg 87%
    13:00 +27°C° 1.6 mm 2 mps 718 mmHg 86%
    14:00 +27°C° 1.8 mm 1 mps 718 mmHg 88%
    15:00 +27°C° 1.8 mm 1 mps 717 mmHg 90%
    16:00 +26°C° 1.8 mm 1 mps 717 mmHg 92%
    17:00 +26°C° 0.5 mm 1 mps 717 mmHg 93%
    18:00 +25°C° 0.5 mm 1 mps 717 mmHg 95%
    19:00 +24°C° 0.5 mm 1 mps 718 mmHg 96%
    20:00 +24°C° 0.1 mm 1 mps 718 mmHg 96%
    21:00 +22°C° 0.1 mm 0 mps 718 mmHg 96%
    22:00 +22°C° 0.1 mm 0 mps 719 mmHg 95%
    23:00 +22°C° 0 mm 0 mps 718 mmHg 95%
    Show more